This demonstration page uses our WeatherBlox Daily Observations layout. Learn more.

Left ArrowRight Arrow

39.95238, -75.16362

Hourly Observations for August 9, 2016

Temp ( °F °C ) Dew Point ( °F °C ) Humidity (%) Winds ( mph kmh ) Pressure ( in mb ) Visibility ( mi km ) Precip ( " mm )
12:54 am 00:54 Clear 73 22.8 69 20.6 87 87 SSE 5 7 30.14 1021 10 16 0.00 0.00
1:54 am 01:54 Clear 72 22.2 68 20 87 87 Calm 30.14 1021 10 16 0.00 0.00
2:54 am 02:54 Clear 71 21.7 69 20.6 94 94 E 5 7 30.14 1021 10 16 0.00 0.00
3:54 am 03:54 Clear 71 21.7 69 20.6 94 94 Calm 30.15 1021 10 16 0.00 0.00
4:54 am 04:54 Mostly Clear 70 21.1 68 20 93 93 Calm 30.15 1021 10 16 0.00 0.00
5:13 am 05:13 Partly Cloudy 70 21.1 68 20 93 93 Calm 30.15 1021 8 13 0.00 0.00
5:54 am 05:54 Partly Cloudy 70 21.1 68 20 93 93 Calm 30.16 1021 8 13 0.00 0.00
6:54 am 06:54 Mostly Cloudy 72 22.2 70 21.1 94 94 Calm 30.17 1022 8 13 0.00 0.00
7:54 am 07:54 Mostly Cloudy 74 23.3 71 21.7 91 91 E 3 6 30.19 1022 8 13 0.00 0.00
8:54 am 08:54 Mostly Cloudy 77 25 71 21.7 82 82 E 5 7 30.20 1023 10 16 0.00 0.00
9:54 am 09:54 Mostly Cloudy 81 27.2 70 21.1 69 69 ESE 8 13 30.21 1023 10 16 0.00 0.00
10:54 am 10:54 Partly Cloudy 84 28.9 69 20.6 61 61 SE 7 11 30.21 1023 10 16 0.00 0.00
11:54 am 11:54 Partly Cloudy 85 29.4 66 18.9 53 53 S 5 7 30.20 1023 10 16 0.00 0.00
12:54 pm 12:54 Partly Cloudy 88 31.1 63 17.2 43 43 S 10 17 30.19 1023 10 16 0.00 0.00
1:54 pm 13:54 Partly Cloudy 89 31.7 61 16.1 39 39 SW 13 20 30.19 1022 10 16 0.00 0.00
2:54 pm 14:54 Mostly Cloudy 86 30 65 18.3 49 49 SSE 8 13 30.18 1022 10 16 0.00 0.00
3:54 pm 15:54 Mostly Cloudy 86 30 64 17.8 48 48 SSE 8 13 30.17 1022 10 16 0.00 0.00
4:54 pm 16:54 Mostly Cloudy 88 31.1 64 17.8 45 45 SSW 13 20 30.16 1022 10 16 0.00 0.00
5:54 pm 17:54 Mostly Cloudy 86 30 63 17.2 46 46 S 10 17 30.17 1022 10 16 0.00 0.00
6:54 pm 18:54 Mostly Cloudy 84 28.9 64 17.8 51 51 S 12 19 30.16 1021 10 16 0.00 0.00
7:54 pm 19:54 Mostly Cloudy 81 27.2 66 18.9 61 61 SSE 7 11 30.16 1022 10 16 0.00 0.00
8:54 pm 20:54 Mostly Cloudy 81 27.2 66 18.9 61 61 S 6 9 30.19 1022 10 16 0.00 0.00
9:54 pm 21:54 Cloudy 80 26.7 67 19.4 64 64 SSE 7 11 30.19 1023 10 16 0.00 0.00
10:54 pm 22:54 Cloudy 80 26.7 70 21.1 71 71 SSW 7 11 30.19 1023 10 16 0.00 0.00
11:54 pm 23:54 Cloudy 79 26.1 70 21.1 74 74 S 8 13 30.21 1023 10 16 0.00 0.00

Powered by AerisWeather